Terminal Aerodrome Forecast
Issued by NWS Chicago, IL

Home | Current Version | Previous Version | Graphics & Text | Print | Product List | Glossary On
Versions: 1 2 3 4 5 6 7 8 9 10 11 12 13 14 15 16 17 18 19 20 21 22 23 24 25 26 27 28
000
FTUS43 KLOT 271250 AAA
TAFRFD
TAF AMD
KRFD 271250Z 2713/2812 08014KT P6SM OVC012
     FM271500 09017G24KT P6SM BKN020 OVC035
     FM272300 08018G26KT P6SM -SHRA VCTS BKN020CB
     FM280800 08015KT P6SM VCSH SCT010 BKN018=

USA.gov is the U.S. government's official web portal to all federal, state and local government web resources and services.